Regional Weather Roundup
Issued by NWS Charleston, SC

Current Version | Previous Version | Graphics & Text | Print | Product List | Glossary On
Versions: 1 2 3 4 5 6 7 8 9 10 11 12 13 14 15 16 17 18 19 20 21 22 23 24 25 26 27 28 29 30 31 32 33 34 35 36 37 38 39 40 41 42 43 44 45 46 47 48 49 50
000
ASUS42 KCHS 311810
RWRCHS

REGIONAL WEATHER ROUNDUP
NATIONAL WEATHER SERVICE CHARLESTON SC
200 PM EDT THU JUL 31 2014

NOTE: "FAIR" INDICATES FEW OR NO CLOUDS BELOW 12,000 FEET WITH NO
SIGNIFICANT WEATHER AND/OR OBSTRUCTIONS TO VISIBILITY.

NOT ALL STATIONS ARE QUALITY CONTROLLED BY THE NATIONAL
WEATHER SERVICE. USE DATA WITH CAUTION...ESPECIALLY
DEWPOINT OBSERVATIONS.

SCZ027-030-031-034>040-042>050-311900-
...SOUTH CAROLINA...

CITY           SKY/WX    TMP DP  RH WIND       PRES   REMARKS
N CHARLESTON   TSTM      79  75  87 NE7       30.04F
6HR MIN TEMP:  77; 6HR MAX TEMP:  87; 6HR PCP:  0.48;

WATERFRONT PRK   N/A     82 N/A N/A NE61        N/A
FORT JOHNSON   NOT AVBL
MOUNT PLEASANT FAIR      82  73  74 NE3       30.05S
JOHNS ISLAND   TSTM      81  73  78 E14       30.03S
PINOPOLIS      NOT AVBL
MONCKS CORNER  TSTM      77  77 100 CALM      30.06R
SUMMERVILLE    RAIN      72  72 100 W3        30.08S
BEAUFORT MCAS  PTSUNNY   81  73  76 E12       30.03S
6HR MIN TEMP:  75; 6HR MAX TEMP:  82; 6HR PCP:  0.87;

BEAUFORT ARPT  MOCLDY    81  73  78 NE16      30.02S
HILTON HEAD IS MOSUNNY   86  72  62 SE6       30.02F HX  92
GEORGETOWN     NOT AVBL
WALTERBORO     HVY RAIN  73 N/A N/A E9        30.08S
ORANGEBURG     CLOUDY    80  72  76 SE6       30.06F
6HR MIN TEMP:  73; 6HR MAX TEMP:  80;

BARNWELL       MOCLDY    81  72  74 E9        30.07R
AIKEN          CLOUDY    82  72  69 E8        30.10R
MANNING        MOCLDY    81  81 100 NE3       30.06F HX  91
KINGSTREE      NOT AVBL
COLUMBIA       CLOUDY    86  68  54 SE13      30.06S
6HR MIN TEMP:  76; 6HR MAX TEMP:  87;

SUMTER         CLOUDY    83  71  67 E7        30.06F
6HR MIN TEMP:  71; 6HR MAX TEMP:  84;

FLORENCE       PTSUNNY   86  68  54 E12       30.08F
6HR MIN TEMP:  72; 6HR MAX TEMP:  86;

MYRTLE BEACH   MOSUNNY   84  72  65 E15       30.08S
N MYRTLE BEACH PTSUNNY   84  70  62 E16G22    30.09S
6HR MIN TEMP:  73; 6HR MAX TEMP:  86;


$$

GAZ063-065-086>088-099>101-113>116-118-119-134-136>141-150-311900-
...GEORGIA...

CITY           SKY/WX    TMP DP  RH WIND       PRES   REMARKS
SAVANNAH ARPT  CLOUDY    90  72  55 S9        29.99F HX  97
6HR MIN TEMP:  76; 6HR MAX TEMP:  90; 6HR PCP:  0.01;

HUNTER AAF     PTSUNNY   89  74  61 SE7       29.98S HX  97
6HR MIN TEMP:  76; 6HR MAX TEMP:  89;

FORT STEWART   PTSUNNY   89  70  54 VRB1      29.97F HX  94
6HR MIN TEMP:  76; 6HR MAX TEMP:  89;

STATESBORO     NOT AVBL
SYLVANIA       CLOUDY    83  76  79 E7        30.04R HX  91
CLAXTON        FAIR      86  75  70 E3        30.00F HX  95
THOMSON        CLOUDY    82  78  86 N7        30.09S HX  91
AUGUSTA-BUSH   LGT RAIN  74  70  87 VRB3      30.06R FOG
6HR MIN TEMP:  74; 6HR MAX TEMP:  82; 6HR PCP:  0.28;

AUGUSTA-DANIEL TSTM      73  70  90 S13       30.09R FOG
SWAINSBORO     LGT RAIN  82  79  89 E3        30.03S HX  93
VIDALIA          N/A     90  72  55 E5        30.00F HX  96
ALMA           PTSUNNY   92  60  34 S6        29.98F HX  91
6HR MIN TEMP:  74; 6HR MAX TEMP:  94;

WAYCROSS       SUNNY     96  63  33 W9        29.99S HX  97
JESUP          FAIR      93  68  43 S8        29.98F HX  97
BRUNSWICK      MOSUNNY   91  63  38 SW8       30.00S HX  92
SAINT SIMONS   MOSUNNY   88  74  63 SE10      29.99F HX  96
6HR MIN TEMP:  76; 6HR MAX TEMP:  89;


$$

SCZ027-028-034-036>038-045-046-048>050-GAZ119-141-311900-
...LAKE AND SUPPLEMENTAL COASTAL OBSERVATIONS...

STATION/POSITION TIME  TEMP    WIND        PRES    WAVE   SWELL
                       AIR SEA DIR/SP/G            HT/PER HT/PER/DIR
                 (UTC) (F)     (DEG/KT/KT) (MB)    (FT/S) (FT/S/D)
UPR LAKE MARION  NOT AVBL
WINYAH BAY       1700   83      90/ 14     1018.0S
LAKE MURRAY      1700   80      70/  5/ 11 1017.6F
ACE BASIN NERRS  1700   74      10/  3     1017.0S
FORT PULASKI     1800   86     130/  6/ 10 1016.3R
SAPELO ISLAND    1700   90     150/  5     1017.0S

$$

ANZ835-935-AMZ111-154-330-350-352-354-374-450-454-472-311900-
...C-MAN AND BUOY OBSERVATIONS...

STATION/POSITION TIME  TEMP    WIND        PRES    WAVE   SWELL
                       AIR SEA DIR/SP/G            HT/PER HT/PER/DIR
                 (UTC) (F)     (DEG/KT/KT) (MB)    (FT/S) (FT/S/D)
FOLLY BEACH CMAN 1700   82      90/ 19/ 22 1017.2F
BUOY 41004       1800   83 83   80/ 17/ 19 1016.3R   4/ 4   2/ 7
BUOY 41008       1800   84 86  160/  8/ 10 1015.9F   2/ 5   2/ 60/ 5
5E ST. MARYS GA  1800      87                N/A     2/ 5
FRYING PAN BUOY  NOT AVBL
BUOY 41025       1800          VRB 12/ 14  1020.1F   3/ 7   3/120/ 7
CAPE LOOKOUT NC  1700   80      70/ 12/ 13 1020.1R
BUOY 41002       1749   80 81  170/ 10/ 14 1018.9S   4/ 6   3/160/ 6
BUOY 41010       1800   83 84  190/  8/  8 1017.1S   3/ 5   2/190/ 5
BUOY 41012       NOT AVBL
ST AUGUSTINE FL  1800   84      90/  8/  9 1016.6F
CAPERS NEARSHORE 1700   82     120/ 14/ 17   N/A
FRIPP NEARSHORE  NOT AVBL


$$



USA.gov is the U.S. government's official web portal to all federal, state and local government web resources and services.